Regional Weather Roundup
Issued by NWS Bismarck, ND

Home | Current Version | Previous Version | Text Only | Print | Product List | Glossary On
Versions: 1 2 3 4 5 6 7 8 9 10 11 12 13 14 15 16 17 18 19 20 21 22 23 24 25 26 27 28 29 30 31 32 33 34 35 36 37 38 39 40 41 42 43 44 45 46 47 48 49 50
323
ASUS43 KBIS 252310
RWRBIS

NWR BROADCAST TEXT
NATIONAL WEATHER SERVICE BISMARCK ND
600 PM CDT TUE APR 25 2017

NOTE: "FAIR" INDICATES FEW OR NO CLOUDS BELOW 12,000 FEET WITH NO
SIGNIFICANT WEATHER AND/OR OBSTRUCTIONS TO VISIBILITY.


CITY           SKY/WX    TMP DP  RH WIND       PRES   REMARKS
WILLISTON      PTSUNNY   41  24  51 NE12      29.97R
MINOT          CLOUDY    43  25  49 N15       29.92R
MINOT AFB      CLOUDY    42  24  48 NE18      29.92R
BISMARCK       CLOUDY    36  26  67 N15G25    29.90F
DICKINSON      CLOUDY    31  23  72 NE14      29.89S
GARRISON         N/A     39  25  57 N9G17     29.91R
HETTINGER ARPT CLOUDY    30  24  78 N14       29.88F WCI  19
JAMESTOWN      CLOUDY    32  27  81 N17G29    29.83S
HAZEN          CLOUDY    37  27  65 N12       29.93S
LINTON           N/A     32  28  86 N16G26    29.88R
MANDAN         CLOUDY    34  25  69 N17       29.89F
STANLEY        CLOUDY    37  28  70 NE12      29.96R
TIOGA          CLOUDY    36  28  75 NE17      29.96S
WATFORD CITY   CLOUDY    37  25  60 NE14      29.95R
$$

CITY           SKY/WX    TMP DP  RH WIND       PRES   REMARKS
GRAND FORKS    CLOUDY    38  29  70 N21G30    29.86R
GRAND FORKS AF CLOUDY    35  27  74 NE23      29.87R
DEVILS LAKE    CLOUDY    35  27  72 NE18G24   29.90R
FARGO          CLOUDY    38  31  76 N23       29.78R
CAVALIER       CLOUDY    36  27  69 NE13G21   29.91R
GRAFTON        CLOUDY    34  28  80 N17G26    29.91R
GWINNER        CLOUDY    36  30  80 MISG      29.76R
LANGDON        CLOUDY    37  28  70 NE18G25   29.90R
ROLLA          CLOUDY    37  25  60 NE21G29   29.93R
$$

CITY           SKY/WX    TMP DP  RH WIND       PRES   REMARKS
ABERDEEN       CLOUDY    35  27  72 N20G32    29.78R
MOBRIDGE       CLOUDY    35  24  64 N23G29    29.81S
BUFFALO          N/A     29  26  89 NE16      29.81R WCI  17
RAPID CITY     CLOUDY    28  25  88 N18       29.82S WCI  15
GLASGOW        CLOUDY    42  24  49 SE10      29.92F
SIDNEY         PTSUNNY   40  24  53 NE13G22   29.96R
WOLF POINT     CLOUDY    46  24  42 E8G18     29.94S
GLENDIVE       PTSUNNY   37  25  61 NE10      29.94R
MILES CITY     CLOUDY    37  25  61 E7        29.91S
BAKER          CLOUDY    33  24  69 NE9       29.90S
$$

CITY           SKY/WX    TMP DP  RH WIND       PRES   REMARKS
BILLINGS       CLOUDY    38  29  70 N3        29.87S
GREAT FALLS    FAIR      48  38  68 NE12      29.78S
REGINA         PTSUNNY   37  23  56 NE8       30.02F
ESTEVAN        PTSUNNY   39  23  52 NE12G18   29.98R
$$





USA.gov is the U.S. government's official web portal to all federal, state and local government web resources and services.